Time,TemperatureF,DewpointF,PressureIn,WindDirection,WindDirectionDegrees,WindSpeedMPH,WindSpeedGustMPH,Humidity,HourlyPrecipIn,Conditions,Clouds,dailyrainin,SoftwareType,DateUTC
2013-09-26 00:08:00,56.5,56.0,29.75,ESE,111,2.0,4.0,97,0.01,,,0.00,weatherlink.com 1.10,2013-09-25 23:08:00,
2013-09-26 00:23:00,56.5,56.0,29.75,ESE,105,2.0,3.0,97,0.01,,,0.00,weatherlink.com 1.10,2013-09-25 23:23:00,
2013-09-26 00:38:00,56.6,56.0,29.75,SE,124,1.0,3.0,97,0.00,,,0.00,weatherlink.com 1.10,2013-09-25 23:38:00,
2013-09-26 00:53:00,56.6,56.0,29.75,East,96,2.0,4.0,97,0.00,,,0.00,weatherlink.com 1.10,2013-09-25 23:53:00,
2013-09-26 01:08:00,56.6,56.0,29.75,East,101,2.0,4.0,97,0.00,,,0.00,weatherlink.com 1.10,2013-09-26 00:08:00,
2013-09-26 01:23:00,56.7,56.0,29.74,East,85,1.0,3.0,97,0.01,,,0.01,weatherlink.com 1.10,2013-09-26 00:23:00,
2013-09-26 01:38:00,56.8,56.0,29.74,East,101,1.0,3.0,97,0.01,,,0.01,weatherlink.com 1.10,2013-09-26 00:38:00,
2013-09-26 01:53:00,56.9,56.0,29.75,ESE,121,2.0,2.0,97,0.01,,,0.01,weatherlink.com 1.10,2013-09-26 00:53:00,
2013-09-26 02:08:00,56.9,56.0,29.75,ENE,75,1.0,2.0,97,0.01,,,0.01,weatherlink.com 1.10,2013-09-26 01:08:00,
2013-09-26 02:23:00,57.0,56.0,29.74,ESE,107,1.0,2.0,97,0.00,,,0.01,weatherlink.com 1.10,2013-09-26 01:23:00,
2013-09-26 02:38:00,57.0,56.0,29.74,East,98,0.0,3.0,97,0.00,,,0.01,weatherlink.com 1.10,2013-09-26 01:38:00,
2013-09-26 02:53:00,57.0,56.0,29.74,East,82,2.0,3.0,97,0.00,,,0.01,weatherlink.com 1.10,2013-09-26 01:53:00,
2013-09-26 03:08:00,57.1,56.0,29.74,ESE,113,1.0,3.0,97,0.00,,,0.01,weatherlink.com 1.10,2013-09-26 02:08:00,
2013-09-26 03:23:00,57.2,56.0,29.74,ESE,105,1.0,3.0,97,0.00,,,0.01,weatherlink.com 1.10,2013-09-26 02:23:00,
2013-09-26 03:38:00,57.3,57.0,29.74,East,96,2.0,3.0,97,0.00,,,0.01,weatherlink.com 1.10,2013-09-26 02:38:00,
2013-09-26 03:53:00,57.4,57.0,29.74,ESE,115,2.0,3.0,97,0.00,,,0.01,weatherlink.com 1.10,2013-09-26 02:53:00,
2013-09-26 04:08:00,57.3,57.0,29.74,East,92,4.0,4.0,97,0.00,,,0.01,weatherlink.com 1.10,2013-09-26 03:08:00,
2013-09-26 04:23:00,57.2,56.0,29.74,SE,125,1.0,3.0,97,0.00,,,0.01,weatherlink.com 1.10,2013-09-26 03:23:00,
2013-09-26 04:38:00,57.2,56.0,29.74,ESE,111,1.0,3.0,97,0.00,,,0.01,weatherlink.com 1.10,2013-09-26 03:38:00,
2013-09-26 04:53:00,57.2,56.0,29.74,ESE,108,1.0,3.0,97,0.00,,,0.01,weatherlink.com 1.10,2013-09-26 03:53:00,
2013-09-26 05:09:00,57.0,56.0,29.74,ENE,60,1.0,3.0,97,0.00,,,0.01,weatherlink.com 1.10,2013-09-26 04:09:00,
2013-09-26 05:24:00,57.0,56.0,29.74,ESE,103,1.0,4.0,97,0.00,,,0.01,weatherlink.com 1.10,2013-09-26 04:24:00,
2013-09-26 05:39:00,57.0,56.0,29.74,ESE,111,2.0,3.0,97,0.00,,,0.01,weatherlink.com 1.10,2013-09-26 04:39:00,
2013-09-26 05:54:00,57.1,56.0,29.74,ESE,107,1.0,2.0,97,0.00,,,0.01,weatherlink.com 1.10,2013-09-26 04:54:00,
2013-09-26 06:09:00,57.1,56.0,29.74,East,101,2.0,4.0,97,0.00,,,0.01,weatherlink.com 1.10,2013-09-26 05:09:00,
2013-09-26 06:24:00,57.2,56.0,29.74,East,84,3.0,4.0,97,0.00,,,0.01,weatherlink.com 1.10,2013-09-26 05:24:00,
2013-09-26 06:39:00,57.4,57.0,29.74,ESE,123,1.0,3.0,97,0.00,,,0.01,weatherlink.com 1.10,2013-09-26 05:39:00,
2013-09-26 06:54:00,57.4,57.0,29.75,ENE,78,1.0,3.0,97,0.00,,,0.01,weatherlink.com 1.10,2013-09-26 05:54:00,
2013-09-26 07:09:00,57.1,56.0,29.75,East,87,3.0,5.0,97,0.00,,,0.01,weatherlink.com 1.10,2013-09-26 06:09:00,
2013-09-26 07:24:00,57.1,56.0,29.75,ESE,109,2.0,4.0,97,0.00,,,0.01,weatherlink.com 1.10,2013-09-26 06:24:00,
2013-09-26 07:39:00,57.1,56.0,29.75,East,93,3.0,5.0,97,0.00,,,0.01,weatherlink.com 1.10,2013-09-26 06:39:00,
2013-09-26 07:54:00,57.4,57.0,29.75,East,98,2.0,5.0,97,0.00,,,0.01,weatherlink.com 1.10,2013-09-26 06:54:00,
2013-09-26 08:09:00,57.6,57.0,29.76,East,91,3.0,5.0,97,0.00,,,0.01,weatherlink.com 1.10,2013-09-26 07:09:00,
2013-09-26 08:24:00,57.8,57.0,29.76,East,80,3.0,5.0,97,0.00,,,0.01,weatherlink.com 1.10,2013-09-26 07:24:00,
2013-09-26 08:39:00,58.1,57.0,29.77,ESE,103,2.0,6.0,97,0.01,,,0.02,weatherlink.com 1.10,2013-09-26 07:39:00,
2013-09-26 08:54:00,58.3,58.0,29.77,ENE,60,3.0,5.0,97,0.02,,,0.02,weatherlink.com 1.10,2013-09-26 07:54:00,
2013-09-26 09:09:00,58.3,58.0,29.77,SW,229,4.0,9.0,97,0.02,,,0.02,weatherlink.com 1.10,2013-09-26 08:09:00,
2013-09-26 09:24:00,58.2,57.0,29.78,ESE,118,3.0,6.0,97,0.02,,,0.02,weatherlink.com 1.10,2013-09-26 08:24:00,
2013-09-26 09:39:00,58.2,57.0,29.78,East,90,4.0,7.0,97,0.01,,,0.02,weatherlink.com 1.10,2013-09-26 08:39:00,
2013-09-26 09:54:00,58.1,57.0,29.78,SSE,149,4.0,7.0,97,0.00,,,0.02,weatherlink.com 1.10,2013-09-26 08:54:00,
2013-09-26 10:09:00,58.0,57.0,29.79,South,171,4.0,8.0,97,0.00,,,0.02,weatherlink.com 1.10,2013-09-26 09:09:00,
2013-09-26 10:24:00,57.8,57.0,29.79,SSE,165,2.0,9.0,96,0.00,,,0.02,weatherlink.com 1.10,2013-09-26 09:24:00,
2013-09-26 10:39:00,57.8,57.0,29.79,ESE,107,3.0,10.0,97,0.00,,,0.02,weatherlink.com 1.10,2013-09-26 09:39:00,
2013-09-26 10:54:00,57.9,57.0,29.79,SSE,162,3.0,9.0,97,0.00,,,0.02,weatherlink.com 1.10,2013-09-26 09:54:00,
2013-09-26 11:09:00,58.2,57.0,29.79,SE,141,3.0,7.0,97,0.00,,,0.02,weatherlink.com 1.10,2013-09-26 10:09:00,
2013-09-26 11:24:00,58.3,57.0,29.80,East,90,3.0,9.0,96,0.00,,,0.02,weatherlink.com 1.10,2013-09-26 10:24:00,
2013-09-26 11:39:00,58.5,57.0,29.79,SSE,164,2.0,6.0,96,0.00,,,0.02,weatherlink.com 1.10,2013-09-26 10:39:00,
2013-09-26 11:54:00,58.8,57.0,29.79,SSE,150,4.0,8.0,95,0.00,,,0.02,weatherlink.com 1.10,2013-09-26 10:54:00,
2013-09-26 12:09:00,59.4,58.0,29.79,ESE,117,4.0,12.0,95,0.00,,,0.02,weatherlink.com 1.10,2013-09-26 11:09:00,
2013-09-26 12:24:00,59.3,58.0,29.79,SE,125,5.0,10.0,94,0.00,,,0.02,weatherlink.com 1.10,2013-09-26 11:24:00,
2013-09-26 12:39:00,59.0,57.0,29.79,ESE,115,6.0,12.0,93,0.00,,,0.02,weatherlink.com 1.10,2013-09-26 11:39:00,
2013-09-26 12:54:00,58.8,57.0,29.79,SE,133,6.0,8.0,93,0.00,,,0.02,weatherlink.com 1.10,2013-09-26 11:54:00,
2013-09-26 13:09:00,58.6,57.0,29.79,East,94,3.0,10.0,93,0.00,,,0.02,weatherlink.com 1.10,2013-09-26 12:09:00,
2013-09-26 13:24:00,58.8,57.0,29.79,SSW,198,7.0,9.0,93,0.00,,,0.02,weatherlink.com 1.10,2013-09-26 12:24:00,
2013-09-26 13:39:00,59.2,57.0,29.80,South,188,0.0,10.0,92,0.00,,,0.02,weatherlink.com 1.10,2013-09-26 12:39:00,
2013-09-26 13:54:00,59.1,57.0,29.80,ESE,110,4.0,7.0,92,0.00,,,0.02,weatherlink.com 1.10,2013-09-26 12:54:00,
2013-09-26 14:09:00,59.2,57.0,29.80,SE,135,1.0,7.0,92,0.00,,,0.02,weatherlink.com 1.10,2013-09-26 13:09:00,
2013-09-26 14:24:00,59.1,57.0,29.80,ESE,108,10.0,10.0,92,0.00,,,0.02,weatherlink.com 1.10,2013-09-26 13:24:00,
2013-09-26 14:39:00,59.1,57.0,29.79,ESE,116,7.0,10.0,92,0.00,,,0.02,weatherlink.com 1.10,2013-09-26 13:39:00,
2013-09-26 14:54:00,59.0,57.0,29.79,ESE,117,4.0,9.0,92,0.00,,,0.02,weatherlink.com 1.10,2013-09-26 13:54:00,
2013-09-26 15:09:00,59.1,57.0,29.79,East,99,2.0,7.0,92,0.00,,,0.02,weatherlink.com 1.10,2013-09-26 14:09:00,
2013-09-26 15:24:00,59.1,57.0,29.78,SE,129,3.0,8.0,92,0.00,,,0.02,weatherlink.com 1.10,2013-09-26 14:24:00,
2013-09-26 15:40:00,59.1,57.0,29.79,NE,41,2.0,5.0,92,0.00,,,0.02,weatherlink.com 1.10,2013-09-26 14:40:00,
2013-09-26 15:54:00,59.5,57.0,29.79,ESE,121,3.0,5.0,92,0.00,,,0.02,weatherlink.com 1.10,2013-09-26 14:54:00,
2013-09-26 16:10:00,59.5,57.0,29.79,NE,56,2.0,5.0,92,0.00,,,0.02,weatherlink.com 1.10,2013-09-26 15:10:00,
2013-09-26 16:25:00,59.5,57.0,29.79,East,98,3.0,6.0,92,0.00,,,0.02,weatherlink.com 1.10,2013-09-26 15:25:00,
2013-09-26 16:40:00,59.4,57.0,29.78,East,91,2.0,6.0,92,0.00,,,0.02,weatherlink.com 1.10,2013-09-26 15:40:00,
2013-09-26 16:55:00,59.4,57.0,29.78,ENE,75,5.0,6.0,92,0.00,,,0.02,weatherlink.com 1.10,2013-09-26 15:55:00,
2013-09-26 17:10:00,59.2,57.0,29.77,East,84,4.0,6.0,93,0.00,,,0.02,weatherlink.com 1.10,2013-09-26 16:10:00,
2013-09-26 17:25:00,59.2,57.0,29.78,ESE,116,3.0,6.0,93,0.00,,,0.02,weatherlink.com 1.10,2013-09-26 16:25:00,
2013-09-26 17:55:00,59.2,58.0,29.78,ENE,68,3.0,5.0,94,0.00,,,0.02,weatherlink.com 1.10,2013-09-26 16:55:00,
2013-09-26 18:10:00,59.3,58.0,29.78,ESE,115,3.0,6.0,94,0.00,,,0.02,weatherlink.com 1.10,2013-09-26 17:10:00,
2013-09-26 18:25:00,59.4,58.0,29.78,SE,146,2.0,6.0,94,0.00,,,0.02,weatherlink.com 1.10,2013-09-26 17:25:00,
2013-09-26 18:40:00,59.6,58.0,29.78,ESE,108,3.0,5.0,93,0.00,,,0.02,weatherlink.com 1.10,2013-09-26 17:40:00,
2013-09-26 18:55:00,59.9,58.0,29.78,South,186,2.0,6.0,92,0.00,,,0.02,weatherlink.com 1.10,2013-09-26 17:55:00,
2013-09-26 19:10:00,59.6,57.0,29.78,ESE,122,6.0,6.0,92,0.00,,,0.02,weatherlink.com 1.10,2013-09-26 18:10:00,
2013-09-26 19:25:00,59.3,57.0,29.79,East,98,2.0,7.0,92,0.00,,,0.02,weatherlink.com 1.10,2013-09-26 18:25:00,
2013-09-26 19:40:00,59.3,57.0,29.79,ESE,115,0.0,5.0,92,0.00,,,0.02,weatherlink.com 1.10,2013-09-26 18:40:00,
2013-09-26 19:55:00,59.2,57.0,29.80,ESE,109,3.0,4.0,92,0.00,,,0.02,weatherlink.com 1.10,2013-09-26 18:55:00,
2013-09-26 20:10:00,59.2,57.0,29.79,ESE,103,3.0,6.0,91,0.00,,,0.02,weatherlink.com 1.10,2013-09-26 19:10:00,
2013-09-26 20:25:00,59.0,57.0,29.80,SE,140,1.0,6.0,92,0.00,,,0.02,weatherlink.com 1.10,2013-09-26 19:25:00,
2013-09-26 20:40:00,58.8,57.0,29.80,ESE,104,6.0,8.0,92,0.00,,,0.02,weatherlink.com 1.10,2013-09-26 19:40:00,
2013-09-26 20:55:00,58.5,57.0,29.80,SE,143,3.0,8.0,93,0.00,,,0.02,weatherlink.com 1.10,2013-09-26 19:55:00,
2013-09-26 21:10:00,58.4,56.0,29.80,South,184,2.0,6.0,92,0.00,,,0.02,weatherlink.com 1.10,2013-09-26 20:10:00,
2013-09-26 21:25:00,58.1,56.0,29.81,East,94,4.0,6.0,93,0.00,,,0.02,weatherlink.com 1.10,2013-09-26 20:25:00,
2013-09-26 21:40:00,57.8,56.0,29.81,East,98,1.0,5.0,94,0.00,,,0.02,weatherlink.com 1.10,2013-09-26 20:40:00,
2013-09-26 21:55:00,57.4,56.0,29.80,East,92,2.0,3.0,94,0.00,,,0.02,weatherlink.com 1.10,2013-09-26 20:55:00,
2013-09-26 22:10:00,57.2,56.0,29.81,NE,46,1.0,2.0,95,0.00,,,0.02,weatherlink.com 1.10,2013-09-26 21:10:00,
2013-09-26 22:25:00,56.8,55.0,29.81,ESE,123,1.0,2.0,95,0.00,,,0.02,weatherlink.com 1.10,2013-09-26 21:25:00,
2013-09-26 22:40:00,56.5,55.0,29.80,NNE,33,4.0,4.0,95,0.00,,,0.02,weatherlink.com 1.10,2013-09-26 21:40:00,
2013-09-26 22:55:00,56.3,55.0,29.81,ENE,76,3.0,3.0,95,0.00,,,0.02,weatherlink.com 1.10,2013-09-26 21:55:00,
2013-09-26 23:10:00,56.4,55.0,29.81,North,5,1.0,2.0,96,0.00,,,0.02,weatherlink.com 1.10,2013-09-26 22:10:00,
2013-09-26 23:25:00,56.7,56.0,29.81,ESE,108,1.0,2.0,96,0.00,,,0.02,weatherlink.com 1.10,2013-09-26 22:25:00,
2013-09-26 23:40:00,56.9,56.0,29.81,East,94,0.0,1.0,96,0.00,,,0.02,weatherlink.com 1.10,2013-09-26 22:40:00,
2013-09-26 23:55:00,57.0,56.0,29.81,NNE,32,0.0,1.0,96,0.00,,,0.02,weatherlink.com 1.10,2013-09-26 22:55:00,